FW8134 Weather Reports


Display with metric or nautical units.
time (UTC)temp
F
wind
direction
speed
MPH
gust
MPH
rain 1hr
in
rain 24hr
in
rain mn
in
humidity
%
barometer
mb
20260503205537 54 0.0 0.0 0.00 0.32 0.32 96 994.0
20260503204539 54 0.0 0.0 0.00 0.32 0.32 96 993.9
20260503203520 54 0.0 0.0 0.00 0.32 0.32 96 993.7
20260503202516 54 0.0 0.0 0.00 0.32 0.32 96 993.6
20260503201517 55 0.0 0.0 0.00 0.32 0.32 96 993.5
20260503200518 55 0.0 0.0 0.00 0.32 0.32 95 993.3
20260503195540 56 0.0 0.0 0.00 0.32 0.32 95 993.2
20260503194516 56 0.0 0.0 0.00 0.32 0.32 95 993.0
20260503193517 57 0.0 0.0 0.00 0.32 0.32 94 992.9
20260503192518 57 0.0 0.0 0.00 0.32 0.32 94 992.9
20260503191540 58 0.0 0.0 0.02 0.32 0.32 94 992.8
20260503190516 58 0.0 0.0 0.06 0.32 0.32 93 992.7
20260503185536 59 200 0.0 2.0 0.06 0.32 0.32 93 992.5
20260503184518 59 233 0.0 2.0 0.06 0.32 0.32 92 992.5
20260503183539 60 212 1.0 3.0 0.06 0.32 0.32 91 992.7
20260503182515 60 145 1.0 2.0 0.06 0.32 0.32 89 992.7
20260503181516 61 211 1.0 5.0 0.04 0.30 0.30 87 992.8
20260503180517 62 0.0 0.0 0.00 0.26 0.26 84 992.5
20260503175518 62 216 0.0 1.0 0.00 0.26 0.26 81 992.3
20260503174519 63 221 0.0 2.0 0.00 0.26 0.26 79 992.4
20260503173516 64 0.0 0.0 0.00 0.26 0.26 78 992.3
20260503172517 65 255 0.0 1.0 0.00 0.26 0.26 74 992.1
20260503171518 66 222 1.0 5.0 0.00 0.26 0.26 71 992.1
20260503170539 68 208 2.0 6.0 0.00 0.26 0.26 68 992.0
20260503150517 67 217 2.0 7.0 0.00 0.26 0.26 69 992.4
20260503130518 64 217 2.0 8.0 0.00 0.26 0.26 87 993.1
20260503110516 63 220 3.0 10.0 0.00 0.17 0.17 80 993.6
20260503081518 57 213 2.0 6.0 0.02 0.17 0.17 96 994.0
20260503080520 57 214 2.0 7.0 0.02 0.17 0.17 96 994.0
20260503072519 56 200 3.0 10.0 0.02 0.15 0.15 96 994.0
20260503071515 56 222 1.0 5.0 0.02 0.15 0.15 97 993.9
20260503070516 56 216 3.0 7.0 0.02 0.14 0.14 97 993.8
20260503054515 55 130 0.0 2.0 0.01 0.12 0.12 97 993.7
20260503053516 55 173 0.0 3.0 0.01 0.12 0.12 97 993.7
20260503052517 55 243 0.0 2.0 0.01 0.12 0.12 97 993.7
20260503051519 55 205 0.0 3.0 0.02 0.12 0.12 96 993.7
20260503050514 55 0.0 1.0 0.02 0.11 0.11 96 993.8
20260503045616 55 208 0.0 1.0 0.02 0.11 0.11 96 993.8
20260503044517 55 0.0 0.0 0.03 0.11 0.11 96 993.7
20260503043518 56 185 0.0 1.0 0.04 0.11 0.11 96 993.7
20260503042519 56 0.0 0.0 0.05 0.11 0.11 96 993.8
20260503041535 56 159 0.0 0.0 0.05 0.10 0.10 96 993.9
20260503040517 56 0.0 0.0 0.05 0.10 0.09 95 993.9
20260503035538 56 0.0 0.0 0.06 0.09 0.09 95 993.8
20260503034519 56 258 0.0 2.0 0.06 0.09 0.08 95 993.8
20260503033520 56 176 1.0 2.0 0.06 0.08 0.07 95 994.0
20260503032517 56 210 0.0 1.0 0.06 0.07 0.06 95 994.0
20260503031517 56 0.0 0.0 0.06 0.06 0.06 94 994.0
20260503030519 57 0.0 0.0 0.05 0.06 0.05 94 993.9
20260503025520 57 0.0 0.0 0.03 0.04 0.03 94 994.0
20260503024516 57 0.0 0.0 0.02 0.03 0.02 93 994.0
20260503023517 57 0.0 0.0 0.02 0.02 0.02 93 994.1
20260503022519 57 0.0 0.0 0.01 0.02 0.01 92 994.2
20260503021520 57 217 1.0 4.0 0.00 0.01 0.00 92 994.2
20260503020516 57 225 0.0 3.0 0.00 0.01 0.00 92 994.2
20260503015517 57 221 1.0 3.0 0.00 0.01 0.00 92 994.2
20260503014518 57 211 1.0 3.0 0.00 0.01 0.00 92 994.2
20260503013519 57 0.0 0.0 0.00 0.01 0.00 91 994.2
20260503012536 57 0.0 0.0 0.00 0.01 0.00 91 994.2
20260503011517 58 0.0 0.0 0.00 0.01 0.00 91 994.3
20260503010519 58 0.0 0.0 0.00 0.01 0.00 91 994.3
20260503005540 58 0.0 1.0 0.00 0.01 0.00 90 994.4
20260503004516 58 218 0.0 2.0 0.00 0.01 0.00 90 994.4
20260503003522 58 225 0.0 3.0 0.00 0.01 0.00 90 994.6
20260503002519 58 224 1.0 4.0 0.00 0.01 0.00 89 994.6
20260503001519 58 200 0.0 5.0 0.00 0.01 0.00 89 994.7
20260503000516 58 249 0.0 2.0 0.00 0.01 0.00 88 994.8
20260502235517 58 0.0 0.0 0.00 0.01 0.00 88 994.9
20260502234518 58 202 0.0 4.0 0.00 0.01 0.00 88 995.0
20260502233520 58 0.0 0.0 0.00 0.01 0.00 88 995.1
20260502232515 58 0.0 0.0 0.00 0.01 0.00 87 995.1
20260502231537 58 0.0 0.0 0.00 0.01 0.00 87 995.2
20260502230518 58 0.0 0.0 0.00 0.01 0.00 87 995.4
20260502225519 58 0.0 0.0 0.00 0.01 0.00 88 995.4
20260502224515 58 0.0 0.0 0.00 0.01 0.00 88 995.3
20260502223517 57 0.0 0.0 0.00 0.01 0.00 88 995.4
20260502222558 57 0.0 0.0 0.00 0.01 0.00 89 995.3
20260502221519 57 0.0 0.0 0.00 0.01 0.00 89 995.2
20260502220515 57 0.0 0.0 0.00 0.01 0.00 88 995.3
20260502215536 57 0.0 0.0 0.00 0.01 0.01 87 995.3
20260502214538 57 0.0 0.0 0.00 0.01 0.01 87 995.3
20260502213519 58 0.0 0.0 0.00 0.01 0.01 87 995.3
20260502212515 58 0.0 0.0 0.00 0.01 0.01 87 995.3
20260502211536 57 0.0 0.0 0.00 0.01 0.01 87 995.3
20260502210518 57 0.0 0.0 0.00 0.01 0.01 86 995.3